Location: Zagreb
(45.8000°N, 16.0000°E)
Time: 21:14:34
(UTC+01:00)

deb Explorer IX - Pass Details

Date: 09 October 2020
Orbit: 537 x 1106 km, 38.8° (Epoch: 30 October)

Event Time Altitude Azimuth Distance (km) Brightness Sun altitude
Rises 18:10:22 0° 269° (W) 3,406 ? 0.9°
Reaches altitude 10° 18:13:27 10° 257° (WSW) 2,358 ? 0.4°
Maximum altitude 18:17:51 25° 203° (SSW) 1,429 ? -0.4°
Drops below altitude 10° 18:21:45 10° 149° (SSE) 2,058 ? -1.0°
Sets 18:24:15 0° 135° (SE) 2,884 ? -1.5°
